This demonstration page uses our WeatherBlox Daily Observations layout. Learn more.

Left ArrowRight Arrow

53.62937, 11.41316

Hourly Observations for September 22, 2015

Temp ( °F °C ) Dew Point ( °F °C ) Humidity (%) Winds ( mph kmh ) Pressure ( in mb ) Visibility ( mi km ) Precip ( " mm )
6:20 am 06:20 Mostly Clear 54 12 50 10 88 88 ESE 9 15 29.71 1006 7 11 N/A
6:50 am 06:50 Mostly Clear 54 12 50 10 88 88 SE 9 15 29.68 1005 7 11 N/A
7:20 am 07:20 Mostly Sunny 54 12 50 10 88 88 SE 10 17 29.68 1005 7 11 N/A
7:50 am 07:50 Mostly Sunny 54 12 50 10 88 88 SE 12 19 29.68 1005 7 11 N/A
8:20 am 08:20 Mostly Sunny 54 12 50 10 88 88 SSE 13 20 29.68 1005 7 11 N/A
8:50 am 08:50 Cloudy with Drizzle 54 12 50 10 88 88 S 13 20 29.68 1005 30 48 N/A
9:20 am 09:20 Mostly Cloudy with Light Rain 54 12 50 10 88 88 S 12 19 29.68 1005 30 48 N/A
9:50 am 09:50 Mostly Sunny 54 12 50 10 88 88 SE 9 15 29.65 1004 7 11 N/A
10:20 am 10:20 Mostly Sunny 55 13 50 10 82 82 SSE 9 15 29.65 1004 7 11 N/A
10:50 am 10:50 Mostly Sunny 55 13 52 11 88 88 SSE 10 17 29.65 1004 7 11 N/A
11:20 am 11:20 Cloudy 57 14 52 11 82 82 SSE 10 17 29.65 1004 30 48 N/A
11:50 am 11:50 Mostly Sunny 57 14 52 11 82 82 SSE 12 19 29.65 1004 7 11 N/A
12:20 pm 12:20 Mostly Sunny 59 15 52 11 77 77 S 9 15 29.65 1004 7 11 N/A
12:50 pm 12:50 Mostly Sunny 61 16 52 11 72 72 SSE 9 15 29.65 1004 7 11 N/A
1:20 pm 13:20 Mostly Sunny 61 16 52 11 72 72 S 9 15 29.62 1003 7 11 N/A
1:50 pm 13:50 Mostly Sunny 61 16 52 11 72 72 S 7 11 29.62 1003 7 11 N/A
2:20 pm 14:20 Cloudy 61 16 54 12 77 77 SE 9 15 29.62 1003 30 48 N/A
2:50 pm 14:50 Cloudy 61 16 52 11 72 72 SSE 8 13 29.62 1003 30 48 N/A
3:20 pm 15:20 Mostly Cloudy 61 16 54 12 77 77 SE 8 13 29.62 1003 30 48 N/A
3:50 pm 15:50 Cloudy 61 16 52 11 72 72 SSE 9 15 29.62 1003 30 48 N/A
4:20 pm 16:20 Cloudy 61 16 52 11 72 72 SSW 8 13 29.59 1002 30 48 N/A
4:50 pm 16:50 Cloudy with Light Rain 57 14 54 12 88 88 WSW 7 11 29.59 1002 30 48 N/A
5:20 pm 17:20 Mostly Cloudy 59 15 55 13 88 88 SSW 3 6 29.59 1002 30 48 N/A
5:50 pm 17:50 Cloudy 59 15 54 12 82 82 ESE 5 7 29.59 1002 30 48 N/A
6:20 pm 18:20 Cloudy 57 14 54 12 88 88 ESE 5 7 29.59 1002 30 48 N/A
6:50 pm 18:50 Cloudy 57 14 54 12 88 88 ESE 6 9 29.59 1002 30 48 N/A

Powered by AerisWeather